Regional Weather Roundup
Issued by NWS

Home | Current Version | Previous Version | Graphics & Text | Print | Product List | Glossary On
Versions: 1 2 3 4 5 6 7 8 9 10 11 12 13 14 15 16 17 18 19 20 21 22 23 24 25 26 27
000
ASUS45 KBOU 271607
RWRCO

WEATHER ROUNDUP FOR COLORADO
NATIONAL WEATHER SERVICE DENVER/BOULDER CO
1000 AM MDT WED JUL 27 2016

NOTE: "FAIR" INDICATES FEW OR NO CLOUDS BELOW 12000 FEET WITH NO
SIGNIFICANT WEATHER AND/OR OBSTRUCTIONS TO VISIBILITY.

COZ001>005-013-030-031-271700-
...NORTHWEST COLORADO...

CITY           SKY/WX    TMP DP  RH WIND       PRES   REMARKS
CRAIG          FAIR      77  41  27 NE6       30.29F
HAYDEN         FAIR      70  39  32 E10       30.32S
MEEKER         FAIR      73  42  32 CALM      30.31F
MOUNT WERNER   NOT AVBL
STEAMBOAT SPGS FAIR      67  39  36 CALM      30.35S
WALDEN         FAIR      66  39  37 CALM      30.43F
$$

COZ006>008-011-271700-
...WEST CENTRAL VALLEYS...

CITY           SKY/WX    TMP DP  RH WIND       PRES   REMARKS
GRAND JUNCTION FAIR      81  42  25 SE9       30.20F
MONTROSE       FAIR      77  45  32 CALM      30.29S
EAGLE          SUNNY     64  39  39 CALM      30.39F
RIFLE          FAIR      75  42  30 VRB5      30.27F
DELTA          FAIR      77  43  29 CALM      30.25S
NUCLA          FAIR      75  43  31 CALM      30.33S
$$

COZ017>023-064>068-271700-
...SOUTHWEST COLORADO...

CITY           SKY/WX    TMP DP  RH WIND       PRES   REMARKS
DURANGO        FAIR      74  48  39 E3        30.34S
CORTEZ         FAIR      80  47  31 NE3       30.28S
PAGOSA SPRINGS FAIR      71  40  31 CALM      30.42S
TELLURIDE      FAIR      69  37  30 W3        30.55S
WOLF CREEK PAS FAIR      55  36  47 NE17G23   30.75F
$$

COZ009-010-012-014-032>034-037-058>063-271700-
...CENTRAL COLORADO...

CITY           SKY/WX    TMP DP  RH WIND       PRES   REMARKS
ASPEN          FAIR      70  41  34 CALM      30.42S
BUENA VISTA    FAIR      70  32  25 CALM      30.43F
COPPER MTN     FAIR      61  32  33 NW7       30.75S
BERTHOUD PASS  FAIR      52  37  58 N10       30.77S
COTTONWOOD PAS FAIR      70  30  23 CALM      30.58R
GUNNISON       FAIR      63  41  45 E3        30.48F
KREMMLING      FAIR      61  36  39 CALM      30.44F
LEADVILLE      FAIR      65  29  25 CALM      30.56F
MONARCH PASS   FAIR      57  27  30 MISG      30.84R
SALIDA         FAIR      69  38  33 N5        30.47S
SUNLIGHT       FAIR      64  36  34 MISG      30.68S
WILKERSON PASS FAIR      63  30  29 N6        30.70S
$$

COZ069>075-271700-
...SAN LUIS VALLEY/SANGRE DE CRISTO MOUNTAINS...

CITY           SKY/WX    TMP DP  RH WIND       PRES   REMARKS
ALAMOSA        FAIR      66  47  50 VRB5      30.41S
LA VETA PASS   FAIR      64  43  45 SW5       30.58S
SAGUACHE       FAIR      72  43  35 SW6       30.42F
$$

COZ035-036-038>040-271700-
...NORTHERN COLORADO FRONT RANGE...

CITY           SKY/WX    TMP DP  RH WIND       PRES   REMARKS
DENVER INTL AP FAIR      76  52  43 NW9       30.22F
DMNS CITY PARK   N/A     74  49  40 NW7       30.24S
AURORA         MOSUNNY   74  49  41 N12       30.25S
FRONT RANGE AP MOSUNNY   75  54  46 NW12      30.24S
ERIE MUNI ARPT FAIR      74  49  41 N6        30.23S
BOULDER MUN AP FAIR      73  45  35 N5        30.24S
CENTENNIAL     FAIR      75  45  34 N12       30.26S
BROOMFIELD     MOSUNNY   73  46  38 N12       30.26S
LONGMONT       FAIR      78  50  37 NE3       30.23F
$$

COZ041-046-047-076>085-087-088-271700-
...PIKES PEAK/PALMER DIVIDE AND SOUTHERN FOOTHILLS...

CITY           SKY/WX    TMP DP  RH WIND       PRES   REMARKS
COLO. SPRINGS  FAIR      74  56  53 CALM      30.27F
A. F. ACADEMY  SUNNY     77  54  45 VRB5      30.28S
SCHRIEVER AFB  NOT AVBL
ELLICOTT       FAIR     N/A N/A N/A CALM      30.26R
FALCON         FAIR      78  51  39 CALM      30.32S
FORT CARSON    FAIR      74  55  51 VRB2      30.23F
LIMON          FAIR      80  55  42 W9        30.21R
MONUMENT HILL  FAIR      73  41  31 N10G17    30.35R
TRINIDAD       NOT AVBL
$$

COZ042>045-048>051-090-091-271700-
...NORTHEAST COLORADO...

CITY           SKY/WX    TMP DP  RH WIND       PRES   REMARKS
GREELEY ARPT   FAIR      73  57  56 N12       30.21R
AKRON          FAIR      77  59  53 SW7       30.18F
BURLINGTON     PTSUNNY   70  63  78 S13       30.16S
WRAY           FAIR      72  59  64 CALM      30.17
STERLING       FAIR      73  61  64 E7        30.15F
HOLYOKE        FAIR      73  63  68 CALM      30.16F
FORT MORGAN    FAIR      75  59  57 E6        30.18S
$$

COZ086-089-092>099-271700-
...SOUTHEAST COLORADO...

CITY           SKY/WX    TMP DP  RH WIND       PRES   REMARKS
PUEBLO         FAIR      78  58  49 W7        30.16F
LA JUNTA       FAIR      79  62  56 W6        30.15S
LAMAR          FAIR      78  66  66 VRB6      30.11S
SPRINGFIELD      N/A     81  62  52 VRB3      30.13F
$$




USA.gov is the U.S. government's official web portal to all federal, state and local government web resources and services.